Meteo18 Weather Cam more information Meteo18 Weather Cam


Thunder radar more information blitzortung!


Rain radar more information rain snow radar



Select another period ( hide this area )

Units Period Custom range Directly to
Metric English Both
Daily Weekly Monthly Yearly
use both date-selectors for a custom range
previous Day
With this date

WeatherUnderground graphs for this period ( click here )


Daily Summary for Wednesday 22 August 2018
Time Temp. ( °C ) Dew pt. ( °C ) Wind ( km/h ) from Gust ( km/h ) Pressure ( hPa ) Humid.( % ) Rainrate ( cm )
High23,7 16,7 13,0 NNE ( 133/493 ) 16,1 1018,8 77 -
Average20,3 15,1 4,0 NNE #29/122 7,7 1018,1 72 -
Low18,8 14,6 -   1,6 1017,8 64 -
Daily Tabular details for Wednesday 22 August 2018
Time Temp. ( °C ) Dew pt. ( °C ) Wind ( km/h ) from Gust ( km/h ) Pressure ( hPa ) Humid.( % ) Rainrate ( cm )
00:04 22,1 15,0 4,7 NNE 11,3 1018,5 64 -
00:08 22,0 15,1 3,2 NNE 14,5 1018,8 65 -
00:14 21,9 15,0 7,9 NNE 9,7 1018,8 65 -
00:18 21,9 15,0 4,7 North 14,5 1018,8 65 -
00:24 21,8 15,2 4,7 NE 11,3 1018,5 66 -
00:28 21,8 15,2 1,4 NNW 11,3 1018,8 66 -
00:34 21,7 15,1 6,4 NNE 6,4 1018,5 66 -
00:38 21,6 15,2 4,7 NNW 9,7 1018,5 67 -
00:44 21,5 15,1 6,4 NNE 9,7 1018,5 67 -
00:48 21,5 15,1 3,2 NNE 8,0 1018,8 67 -
00:54 21,4 15,2   Calm 8,0 1018,5 68 -
00:58 21,3 15,2 7,9 NNE 12,9 1018,5 68 -
01:04 21,2 15,1   Calm 4,8 1018,5 68 -
01:08 21,2 15,1 1,4 NW 6,4 1018,5 68 -
01:14 21,1 15,2 4,7 NNW 8,0 1018,5 69 -
01:18 21,1 15,2   Calm 6,4 1018,5 69 -
01:24 20,9 15,0 1,4 NNW 4,8 1018,5 69 -
01:28 20,9 15,0 4,7 North 8,0 1018,5 69 -
01:34 20,8 15,1 4,7 North 8,0 1018,5 70 -
01:38 20,8 15,1 6,4 NNE 6,4 1018,2 70 -
01:44 20,7 15,0 1,4 East 8,0 1018,2 70 -
01:48 20,6 14,9 4,7 NNW 8,0 1018,2 70 -
01:54 20,6 15,2 6,4 NNE 8,0 1018,2 71 -
01:58 20,6 15,2 4,7 NNW 9,7 1018,2 71 -
02:04 20,5 15,1 3,2 NNE 8,0 1018,2 71 -
02:08 20,4 15,0 4,7 North 9,7 1018,2 71 -
02:14 20,4 15,0 3,2 NNE 8,0 1018,2 71 -
02:18 20,3 14,9 3,2 NNE 8,0 1018,2 71 -
02:24 20,3 15,1 1,4 NW 11,3 1018,2 72 -
02:28 20,3 15,1 3,2 NNW 8,0 1018,2 72 -
02:32 20,2 15,0 3,2 NW 3,2 1018,2 72 -
02:38 20,1 14,9 3,2 NNE 6,4 1018,2 72 -
02:42 20,0 14,8 3,2 NNW 4,8 1018,2 72 -
02:49 19,9 14,9   Calm 3,2 1018,2 73 -
02:53 19,9 14,9 1,4 North 3,2 1018,2 73 -
02:59 19,8 14,8   Calm 1,6 1018,2 73 -
03:03 19,8 14,8   Calm 3,2 1018,2 73 -
03:09 19,7 14,9 3,2 North 6,4 1018,2 74 -
03:13 19,7 14,9 3,2 NNE 6,4 1017,8 74 -
03:19 19,7 14,9 3,2 North 6,4 1018,2 74 -
03:23 19,6 14,8 3,2 NNW 4,8 1018,2 74 -
03:29 19,6 14,8 3,2 North 6,4 1018,2 74 -
03:33 19,6 14,8 1,4 North 6,4 1018,2 74 -
03:39 19,6 14,8 3,2 NNE 4,8 1018,2 74 -
03:43 19,6 14,8 3,2 North 6,4 1018,2 74 -
03:49 19,6 14,8 3,2 NNW 6,4 1018,2 74 -
03:53 19,6 14,8 4,7 North 4,8 1017,8 74 -
03:59 19,6 14,8 1,4 North 6,4 1017,8 74 -
04:03 19,6 14,8 3,2 NNW 6,4 1017,8 74 -
04:09 19,5 14,7 7,9 NNE 8,0 1018,2 74 -
04:13 19,5 14,7 4,7 NNW 6,4 1017,8 74 -
04:19 19,5 14,7 1,4 NNW 4,8 1017,8 74 -
04:23 19,4 14,6 6,4 North 6,4 1017,8 74 -
04:29 19,4 14,9   Calm 4,8 1017,8 75 -
04:33 19,3 14,8 6,4 NNW 6,4 1017,8 75 -
04:39 19,3 14,8 1,4 NNW 3,2 1017,8 75 -
04:43 19,2 14,7   Calm 1,6 1017,8 75 -
04:49 19,1 14,8 3,2 NNW 4,8 1017,8 76 -
04:53 19,1 14,8 1,4 NNE 8,0 1017,8 76 -
04:59 19,1 14,8   Calm 4,8 1017,8 76 -
05:03 19,0 14,7 3,2 NNW 3,2 1017,8 76 -
05:09 18,9 14,6 4,7 North 6,4 1017,8 76 -
05:13 18,9 14,6 3,2 NNE 6,4 1017,8 76 -
05:19 18,9 14,8 1,4 North 6,4 1017,8 77 -
05:23 18,9 14,6   Calm 4,8 1017,8 76 -
05:29 18,8 14,7 3,2 North 4,8 1017,8 77 -
05:33 18,9 14,8 1,4 NNW 4,8 1017,8 77 -
05:39 18,9 14,6   Calm 4,8 1017,8 76 -
05:43 18,9 14,6 4,7 NNW 4,8 1017,8 76 -
05:49 19,1 14,8   Calm 1,6 1017,8 76 -
05:53 19,1 14,8 4,7 NNW 9,7 1017,8 76 -
05:59 19,1 14,8 7,9 North 8,0 1017,8 76 -
06:03 19,1 14,8 6,4 NNE 9,7 1017,8 76 -
06:09 19,2 14,9 4,7 North 6,4 1017,8 76 -
06:13 19,2 14,7 6,4 NW 8,0 1017,8 75 -
06:19 19,2 14,7 3,2 North 8,0 1017,8 75 -
06:23 19,2 14,7 6,4 NNW 8,0 1017,8 75 -
06:29 19,1 14,8 4,7 NNE 9,7 1017,8 76 -
06:33 19,1 14,8 1,4 NNE 4,8 1017,8 76 -
06:39 19,2 14,7 1,4 NW 8,0 1017,8 75 -
06:43 19,1 14,6 4,7 NNE 8,0 1017,8 75 -
06:49 19,1 14,8 3,2 NNE 6,4 1017,8 76 -
06:53 19,1 14,6 4,7 NNE 8,0 1017,8 75 -
06:59 19,2 14,7 4,7 ENE 6,4 1017,8 75 -
07:03 19,1 14,8 6,4 North 6,4 1017,8 76 -
07:09 19,1 14,8 3,2 NE 6,4 1017,8 76 -
07:13 19,2 14,9 3,2 NNE 9,7 1017,8 76 -
07:19 19,3 14,8 4,7 WNW 6,4 1017,8 75 -
07:23 19,4 14,9 3,2 NE 8,0 1017,8 75 -
07:29 19,6 15,0   Calm 9,7 1017,8 75 -
07:33 19,7 14,9 6,4 NNW 9,7 1018,2 74 -
07:39 19,8 15,0 4,7 NE 6,4 1018,2 74 -
07:43 19,9 15,1 1,4 North 4,8 1018,2 74 -
07:49 20,1 15,1 3,2 NW 6,4 1018,2 73 -
07:53 20,2 15,2 4,7 North 8,0 1018,2 73 -
07:59 20,3 15,3 1,4 NNE 4,8 1018,2 73 -
08:03 20,4 15,2 1,4 NE 8,0 1018,2 72 -
08:09 20,6 15,4 3,2 NNW 8,0 1018,2 72 -
08:13 20,7 15,5 4,7 NE 4,8 1018,2 72 -
08:19 20,8 15,3 3,2 NNE 9,7 1018,2 71 -
08:23 20,8 15,3 6,4 NE 11,3 1018,2 71 -
08:29 20,8 15,3 11,1 NE 12,9 1018,2 71 -
08:34 20,9 15,4 6,4 North 11,3 1018,2 71 -
08:38 21,1 15,6 6,4 NE 11,3 1018,2 71 -
08:44 21,2 15,7 3,2 NNE 6,4 1018,5 71 -
08:48 21,3 15,6 3,2 ENE 8,0 1018,2 70 -
08:54 21,4 15,7 6,4 North 11,3 1018,2 70 -
08:58 21,5 15,8 4,7 NE 11,3 1018,2 70 -
09:04 21,7 15,8 9,7 NE 12,9 1018,2 69 -
09:08 21,8 15,9 9,7 NE 11,3 1018,5 69 -
09:14 21,8 15,9 4,7 NE 11,3 1018,2 69 -
09:18 21,9 15,7 6,4 NE 14,5 1018,5 68 -
09:24 21,9 16,0 6,4 ENE 16,1 1018,2 69 -
09:28 22,1 16,1 4,7 NE 9,7 1018,2 69 -
09:34 22,3 16,1 7,9 NE 11,3 1018,2 68 -
09:38 22,4 16,2 7,9 ENE 9,7 1018,5 68 -
09:44 22,6 16,2 9,7 ENE 11,3 1018,5 67 -
09:48 22,8 16,4 3,2 East 8,0 1018,5 67 -
09:54 23,1 16,4 7,9 East 11,3 1018,5 66 -
09:58 23,2 16,3 13,0 NNE 12,9 1018,5 65 -
10:04 23,4 16,4 9,7 NE 11,3 1018,5 65 -
10:08 23,7 16,7 7,9 ENE 9,7 1018,5 65 -
Daily Summary for Wednesday 22 August 2018
Time Temp. ( °C ) Dew pt. ( °C ) Wind ( km/h ) from Gust ( km/h ) Pressure ( hPa ) Humid.( % ) Rainrate ( cm )
High23,7 16,7 13,0 NNE ( 133/493 ) 16,1 1018,8 77 -
Average20,3 15,1 4,0 NNE #29/122 7,7 1018,1 72 -
Low18,8 14,6 -   1,6 1017,8 64 -
Daily Tabular details for Wednesday 22 August 2018
Time Temp. ( °C ) Dew pt. ( °C ) Wind ( km/h ) from Gust ( km/h ) Pressure ( hPa ) Humid.( % ) Rainrate ( cm )
00:04 22,1 15,0 4,7 NNE 11,3 1018,5 64 -
00:08 22,0 15,1 3,2 NNE 14,5 1018,8 65 -
00:14 21,9 15,0 7,9 NNE 9,7 1018,8 65 -
00:18 21,9 15,0 4,7 North 14,5 1018,8 65 -
00:24 21,8 15,2 4,7 NE 11,3 1018,5 66 -
00:28 21,8 15,2 1,4 NNW 11,3 1018,8 66 -
00:34 21,7 15,1 6,4 NNE 6,4 1018,5 66 -
00:38 21,6 15,2 4,7 NNW 9,7 1018,5 67 -
00:44 21,5 15,1 6,4 NNE 9,7 1018,5 67 -
00:48 21,5 15,1 3,2 NNE 8,0 1018,8 67 -
00:54 21,4 15,2   Calm 8,0 1018,5 68 -
00:58 21,3 15,2 7,9 NNE 12,9 1018,5 68 -
01:04 21,2 15,1   Calm 4,8 1018,5 68 -
01:08 21,2 15,1 1,4 NW 6,4 1018,5 68 -
01:14 21,1 15,2 4,7 NNW 8,0 1018,5 69 -
01:18 21,1 15,2   Calm 6,4 1018,5 69 -
01:24 20,9 15,0 1,4 NNW 4,8 1018,5 69 -
01:28 20,9 15,0 4,7 North 8,0 1018,5 69 -
01:34 20,8 15,1 4,7 North 8,0 1018,5 70 -
01:38 20,8 15,1 6,4 NNE 6,4 1018,2 70 -
01:44 20,7 15,0 1,4 East 8,0 1018,2 70 -
01:48 20,6 14,9 4,7 NNW 8,0 1018,2 70 -
01:54 20,6 15,2 6,4 NNE 8,0 1018,2 71 -
01:58 20,6 15,2 4,7 NNW 9,7 1018,2 71 -
02:04 20,5 15,1 3,2 NNE 8,0 1018,2 71 -
02:08 20,4 15,0 4,7 North 9,7 1018,2 71 -
02:14 20,4 15,0 3,2 NNE 8,0 1018,2 71 -
02:18 20,3 14,9 3,2 NNE 8,0 1018,2 71 -
02:24 20,3 15,1 1,4 NW 11,3 1018,2 72 -
02:28 20,3 15,1 3,2 NNW 8,0 1018,2 72 -
02:32 20,2 15,0 3,2 NW 3,2 1018,2 72 -
02:38 20,1 14,9 3,2 NNE 6,4 1018,2 72 -
02:42 20,0 14,8 3,2 NNW 4,8 1018,2 72 -
02:49 19,9 14,9   Calm 3,2 1018,2 73 -
02:53 19,9 14,9 1,4 North 3,2 1018,2 73 -
02:59 19,8 14,8   Calm 1,6 1018,2 73 -
03:03 19,8 14,8   Calm 3,2 1018,2 73 -
03:09 19,7 14,9 3,2 North 6,4 1018,2 74 -
03:13 19,7 14,9 3,2 NNE 6,4 1017,8 74 -
03:19 19,7 14,9 3,2 North 6,4 1018,2 74 -
03:23 19,6 14,8 3,2 NNW 4,8 1018,2 74 -
03:29 19,6 14,8 3,2 North 6,4 1018,2 74 -
03:33 19,6 14,8 1,4 North 6,4 1018,2 74 -
03:39 19,6 14,8 3,2 NNE 4,8 1018,2 74 -
03:43 19,6 14,8 3,2 North 6,4 1018,2 74 -
03:49 19,6 14,8 3,2 NNW 6,4 1018,2 74 -
03:53 19,6 14,8 4,7 North 4,8 1017,8 74 -
03:59 19,6 14,8 1,4 North 6,4 1017,8 74 -
04:03 19,6 14,8 3,2 NNW 6,4 1017,8 74 -
04:09 19,5 14,7 7,9 NNE 8,0 1018,2 74 -
04:13 19,5 14,7 4,7 NNW 6,4 1017,8 74 -
04:19 19,5 14,7 1,4 NNW 4,8 1017,8 74 -
04:23 19,4 14,6 6,4 North 6,4 1017,8 74 -
04:29 19,4 14,9   Calm 4,8 1017,8 75 -
04:33 19,3 14,8 6,4 NNW 6,4 1017,8 75 -
04:39 19,3 14,8 1,4 NNW 3,2 1017,8 75 -
04:43 19,2 14,7   Calm 1,6 1017,8 75 -
04:49 19,1 14,8 3,2 NNW 4,8 1017,8 76 -
04:53 19,1 14,8 1,4 NNE 8,0 1017,8 76 -
04:59 19,1 14,8   Calm 4,8 1017,8 76 -
05:03 19,0 14,7 3,2 NNW 3,2 1017,8 76 -
05:09 18,9 14,6 4,7 North 6,4 1017,8 76 -
05:13 18,9 14,6 3,2 NNE 6,4 1017,8 76 -
05:19 18,9 14,8 1,4 North 6,4 1017,8 77 -
05:23 18,9 14,6   Calm 4,8 1017,8 76 -
05:29 18,8 14,7 3,2 North 4,8 1017,8 77 -
05:33 18,9 14,8 1,4 NNW 4,8 1017,8 77 -
05:39 18,9 14,6   Calm 4,8 1017,8 76 -
05:43 18,9 14,6 4,7 NNW 4,8 1017,8 76 -
05:49 19,1 14,8   Calm 1,6 1017,8 76 -
05:53 19,1 14,8 4,7 NNW 9,7 1017,8 76 -
05:59 19,1 14,8 7,9 North 8,0 1017,8 76 -
06:03 19,1 14,8 6,4 NNE 9,7 1017,8 76 -
06:09 19,2 14,9 4,7 North 6,4 1017,8 76 -
06:13 19,2 14,7 6,4 NW 8,0 1017,8 75 -
06:19 19,2 14,7 3,2 North 8,0 1017,8 75 -
06:23 19,2 14,7 6,4 NNW 8,0 1017,8 75 -
06:29 19,1 14,8 4,7 NNE 9,7 1017,8 76 -
06:33 19,1 14,8 1,4 NNE 4,8 1017,8 76 -
06:39 19,2 14,7 1,4 NW 8,0 1017,8 75 -
06:43 19,1 14,6 4,7 NNE 8,0 1017,8 75 -
06:49 19,1 14,8 3,2 NNE 6,4 1017,8 76 -
06:53 19,1 14,6 4,7 NNE 8,0 1017,8 75 -
06:59 19,2 14,7 4,7 ENE 6,4 1017,8 75 -
07:03 19,1 14,8 6,4 North 6,4 1017,8 76 -
07:09 19,1 14,8 3,2 NE 6,4 1017,8 76 -
07:13 19,2 14,9 3,2 NNE 9,7 1017,8 76 -
07:19 19,3 14,8 4,7 WNW 6,4 1017,8 75 -
07:23 19,4 14,9 3,2 NE 8,0 1017,8 75 -
07:29 19,6 15,0   Calm 9,7 1017,8 75 -
07:33 19,7 14,9 6,4 NNW 9,7 1018,2 74 -
07:39 19,8 15,0 4,7 NE 6,4 1018,2 74 -
07:43 19,9 15,1 1,4 North 4,8 1018,2 74 -
07:49 20,1 15,1 3,2 NW 6,4 1018,2 73 -
07:53 20,2 15,2 4,7 North 8,0 1018,2 73 -
07:59 20,3 15,3 1,4 NNE 4,8 1018,2 73 -
08:03 20,4 15,2 1,4 NE 8,0 1018,2 72 -
08:09 20,6 15,4 3,2 NNW 8,0 1018,2 72 -
08:13 20,7 15,5 4,7 NE 4,8 1018,2 72 -
08:19 20,8 15,3 3,2 NNE 9,7 1018,2 71 -
08:23 20,8 15,3 6,4 NE 11,3 1018,2 71 -
08:29 20,8 15,3 11,1 NE 12,9 1018,2 71 -
08:34 20,9 15,4 6,4 North 11,3 1018,2 71 -
08:38 21,1 15,6 6,4 NE 11,3 1018,2 71 -
08:44 21,2 15,7 3,2 NNE 6,4 1018,5 71 -
08:48 21,3 15,6 3,2 ENE 8,0 1018,2 70 -
08:54 21,4 15,7 6,4 North 11,3 1018,2 70 -
08:58 21,5 15,8 4,7 NE 11,3 1018,2 70 -
09:04 21,7 15,8 9,7 NE 12,9 1018,2 69 -
09:08 21,8 15,9 9,7 NE 11,3 1018,5 69 -
09:14 21,8 15,9 4,7 NE 11,3 1018,2 69 -
09:18 21,9 15,7 6,4 NE 14,5 1018,5 68 -
09:24 21,9 16,0 6,4 ENE 16,1 1018,2 69 -
09:28 22,1 16,1 4,7 NE 9,7 1018,2 69 -
09:34 22,3 16,1 7,9 NE 11,3 1018,2 68 -
09:38 22,4 16,2 7,9 ENE 9,7 1018,5 68 -
09:44 22,6 16,2 9,7 ENE 11,3 1018,5 67 -
09:48 22,8 16,4 3,2 East 8,0 1018,5 67 -
09:54 23,1 16,4 7,9 East 11,3 1018,5 66 -
09:58 23,2 16,3 13,0 NNE 12,9 1018,5 65 -
10:04 23,4 16,4 9,7 NE 11,3 1018,5 65 -
10:08 23,7 16,7 7,9 ENE 9,7 1018,5 65 -

Download your copy of this data-set  here

Our weather-data as stored at Weather Underground. Script developed by Jim McMurry. Adapted for the template by Leuven-Template.eu

You find our weather info also at:

Weather Underground

Equipment we use:

Weather-station
Davis Vue

Weather-program
Meteobridge

Weather-server
Raspberry PI 2 B+

Provider
1 and 1

Davis Vue

Meteobridge

Raspberry PI 2 B+

1 and 1